K7SFN Weather Reports


Display with metric or nautical units.
time (UTC)temp
F
wind
direction
speed
MPH
gust
MPH
rain 1hr
in
rain 24hr
in
rain mn
in
humidity
%
barometer
mb
20260508093504 45 104 0.0 0.0 0.00 0.00 0.00 67 1020.3
20260508093004 46 104 0.0 0.0 0.00 0.00 0.00 65 1020.3
20260508092505 46 104 0.0 0.0 0.00 0.00 0.00 64 1020.2
20260508092005 45 104 0.0 0.0 0.00 0.00 0.00 64 1020.2
20260508091505 45 104 0.0 0.0 0.00 0.00 0.00 66 1020.2
20260508091004 46 104 0.0 0.0 0.00 0.00 0.00 68 1020.1
20260508090505 45 104 0.0 0.0 0.00 0.00 0.00 69 1020.1
20260508090005 46 104 0.0 0.0 0.00 0.00 0.00 70 1020.2
20260508085505 46 104 0.0 0.0 0.00 0.00 0.00 70 1020.2
20260508085005 46 104 0.0 0.0 0.00 0.00 0.00 70 1020.2
20260508083505 47 104 0.0 0.0 0.00 0.00 0.00 69 1020.2
20260508083004 47 104 0.0 0.0 0.00 0.00 0.00 67 1020.3
20260508082504 48 104 0.0 0.0 0.00 0.00 0.00 67 1020.3
20260508082004 48 104 0.0 0.0 0.00 0.00 0.00 67 1020.3
20260508081505 49 104 0.0 0.0 0.00 0.00 0.00 66 1020.4
20260508080504 49 104 0.0 1.0 0.00 0.00 0.00 64 1020.5
20260508080005 50 158 0.0 0.0 0.00 0.00 0.00 64 1020.5
20260508075505 51 158 0.0 0.0 0.00 0.00 0.00 63 1020.6
20260508074505 52 175 3.0 3.0 0.00 0.00 0.00 62 1020.5
20260508074004 52 312 0.0 0.0 0.00 0.00 0.00 60 1020.5
20260508073504 53 312 0.0 1.0 0.00 0.00 0.00 58 1020.4
20260508073005 54 103 0.0 1.0 0.00 0.00 0.00 55 1020.3
20260508072005 55 103 0.0 0.0 0.00 0.00 0.00 51 1020.3
20260508071504 55 103 1.0 3.0 0.00 0.00 0.00 49 1020.2
20260508071005 55 103 1.0 2.0 0.00 0.00 0.00 47 1020.2
20260508070505 55 102 0.0 2.0 0.00 0.00 0.00 46 1020.0
20260508065005 55 171 3.0 6.0 0.00 0.00 0.00 46 1019.9
20260508064004 55 144 0.0 0.0 0.00 0.00 0.00 46 1019.9
20260508063505 54 147 1.0 2.0 0.00 0.00 0.00 46 1020.0
20260508063004 55 138 0.0 0.0 0.00 0.00 0.00 49 1020.0
20260508062505 56 138 1.0 3.0 0.00 0.00 0.00 47 1020.0
20260508062005 55 134 1.0 3.0 0.00 0.00 0.00 48 1020.2
20260508061005 55 191 0.0 2.0 0.00 0.00 0.00 54 1020.3
20260508060504 55 179 0.0 2.0 0.00 0.00 0.00 57 1020.3
20260508060005 56 176 0.0 0.0 0.00 0.00 0.00 57 1020.4
20260508055505 56 176 0.0 0.0 0.00 0.00 0.00 55 1020.4
20260508055005 57 176 0.0 0.0 0.00 0.00 0.00 56 1020.5
20260508054505 58 176 0.0 0.0 0.00 0.00 0.00 58 1020.5
20260508054005 59 176 0.0 0.0 0.00 0.00 0.00 54 1020.5
20260508053504 59 176 0.0 1.0 0.00 0.00 0.00 49 1020.5
20260508053005 60 239 0.0 1.0 0.00 0.00 0.00 46 1020.4
20260508052504 60 121 3.0 7.0 0.00 0.00 0.00 44 1020.4
20260508052005 61 183 3.0 6.0 0.00 0.00 0.00 44 1020.3
20260508051005 62 174 0.0 0.0 0.00 0.00 0.00 42 1020.4
20260508050505 62 185 1.0 6.0 0.00 0.00 0.00 41 1020.4
20260508050005 62 247 2.0 8.0 0.00 0.00 0.00 42 1020.3
20260508045504 62 270 4.0 13.0 0.00 0.00 0.00 43 1020.3
20260508045005 62 234 2.0 8.0 0.00 0.00 0.00 43 1020.3
20260508044505 63 256 5.0 9.0 0.00 0.00 0.00 45 1020.2
20260508044004 63 227 7.0 12.0 0.00 0.00 0.00 46 1020.3
20260508043504 63 233 5.0 13.0 0.00 0.00 0.00 44 1020.0
20260508043004 63 210 7.0 17.0 0.00 0.00 0.00 45 1020.2
20260508041505 63 262 4.0 8.0 0.00 0.00 0.00 47 1020.0
20260508041005 62 226 5.0 16.0 0.00 0.00 0.00 49 1020.0
20260508040505 62 197 5.0 9.0 0.00 0.00 0.00 50 1020.0
20260508040005 62 226 3.0 8.0 0.00 0.00 0.00 51 1020.1
20260508035504 62 263 1.0 6.0 0.00 0.00 0.00 51 1020.2
20260508035005 63 222 0.0 2.0 0.00 0.00 0.00 50 1020.2
20260508034505 63 224 0.0 6.0 0.00 0.00 0.00 48 1020.2
20260508034005 63 209 1.0 3.0 0.00 0.00 0.00 48 1020.0
20260508033005 64 256 0.0 2.0 0.00 0.00 0.00 48 1019.9
20260508032505 64 256 0.0 0.0 0.00 0.00 0.00 47 1019.9
20260508031506 65 242 0.0 2.0 0.00 0.00 0.00 45 1019.7
20260508031004 65 258 0.0 2.0 0.00 0.00 0.00 43 1019.7
20260508030004 66 322 1.0 6.0 0.00 0.00 0.00 44 1019.6
20260508025504 66 272 0.0 2.0 0.00 0.00 0.00 43 1019.5
20260508025004 67 258 1.0 7.0 0.00 0.00 0.00 42 1019.3
20260508024504 67 289 1.0 5.0 0.00 0.00 0.00 39 1019.3
20260508024005 67 289 1.0 7.0 0.00 0.00 0.00 40 1019.1
20260508023005 68 282 2.0 6.0 0.00 0.00 0.00 38 1019.0
20260508022504 68 294 2.0 7.0 0.00 0.00 0.00 37 1019.0
20260508022004 68 239 0.0 6.0 0.00 0.00 0.00 36 1018.8
20260508021504 69 224 1.0 7.0 0.00 0.00 0.00 35 1018.8
20260508021005 70 294 4.0 8.0 0.00 0.00 0.00 35 1018.7
20260508020505 70 278 5.0 8.0 0.00 0.00 0.00 34 1018.7
20260508020005 70 289 6.0 10.0 0.00 0.00 0.00 32 1018.6
20260508015504 71 284 3.0 8.0 0.00 0.00 0.00 33 1018.7
20260508015005 71 292 3.0 10.0 0.00 0.00 0.00 33 1018.6
20260508014004 71 278 3.0 9.0 0.00 0.00 0.00 31 1018.5
20260508013505 72 290 5.0 14.0 0.00 0.00 0.00 30 1018.5
20260508013004 72 269 5.0 9.0 0.00 0.00 0.00 31 1018.5
20260508012504 72 295 5.0 13.0 0.00 0.00 0.00 30 1018.4
20260508012004 72 320 2.0 10.0 0.00 0.00 0.00 28 1018.4
20260508011504 73 293 4.0 9.0 0.00 0.00 0.00 28 1018.4
20260508010505 74 300 5.0 14.0 0.00 0.00 0.00 25 1018.4
20260508010004 74 296 4.0 8.0 0.00 0.00 0.00 25 1018.4
20260508005504 74 300 7.0 14.0 0.00 0.00 0.00 25 1018.4
20260508005004 74 286 6.0 9.0 0.00 0.00 0.00 25 1018.4
20260508004504 74 279 5.0 10.0 0.00 0.00 0.00 24 1018.4
20260508004004 74 303 5.0 12.0 0.00 0.00 0.00 24 1018.4
20260508003505 74 287 6.0 12.0 0.00 0.00 0.00 24 1018.4
20260508002005 74 282 5.0 12.0 0.00 0.00 0.00 24 1018.4
20260508001005 75 277 6.0 12.0 0.00 0.00 0.00 25 1018.2
20260508000504 75 288 6.0 20.0 0.00 0.00 0.00 24 1018.3
20260508000004 75 285 6.0 14.0 0.00 0.00 0.00 23 1018.3
20260507235504 75 281 5.0 12.0 0.00 0.00 0.00 23 1018.4
20260507235004 75 272 7.0 16.0 0.00 0.00 0.00 24 1018.3
20260507234504 75 284 5.0 12.0 0.00 0.00 0.00 24 1018.4
20260507234004 75 287 6.0 12.0 0.00 0.00 0.00 23 1018.4
20260507233504 75 290 6.0 12.0 0.00 0.00 0.00 24 1018.4
20260507233004 75 275 5.0 15.0 0.00 0.00 0.00 24 1018.3
20260507232504 76 277 7.0 17.0 0.00 0.00 0.00 23 1018.4
20260507231504 76 283 7.0 13.0 0.00 0.00 0.00 22 1018.4
20260507231004 76 286 6.0 16.0 0.00 0.00 0.00 23 1018.4
20260507230505 77 277 6.0 13.0 0.00 0.00 0.00 22 1018.5
20260507230005 77 289 7.0 14.0 0.00 0.00 0.00 22 1018.5
20260507225504 77 272 6.0 10.0 0.00 0.00 0.00 22 1018.4
20260507225005 77 290 5.0 13.0 0.00 0.00 0.00 21 1018.5
20260507224504 77 283 5.0 14.0 0.00 0.00 0.00 21 1018.5
20260507224004 78 271 5.0 15.0 0.00 0.00 0.00 21 1018.6
20260507223505 78 260 5.0 9.0 0.00 0.00 0.00 21 1018.6
20260507223005 78 264 6.0 10.0 0.00 0.00 0.00 21 1018.6
20260507222505 78 277 5.0 14.0 0.00 0.00 0.00 22 1018.7
20260507222005 78 291 3.0 14.0 0.00 0.00 0.00 22 1018.8
20260507221504 78 277 3.0 13.0 0.00 0.00 0.00 22 1018.8
20260507221005 78 265 5.0 12.0 0.00 0.00 0.00 22 1019.0
20260507220504 78 273 5.0 9.0 0.00 0.00 0.00 22 1019.0
20260507220005 78 276 5.0 9.0 0.00 0.00 0.00 20 1019.1
20260507215004 78 272 3.0 12.0 0.00 0.00 0.00 21 1019.2
20260507214504 78 287 5.0 12.0 0.00 0.00 0.00 21 1019.2
20260507214005 78 291 6.0 10.0 0.00 0.00 0.00 20 1019.3
20260507213505 78 287 7.0 12.0 0.00 0.00 0.00 22 1019.3
20260507212505 78 290 6.0 9.0 0.00 0.00 0.00 22 1019.4
20260507212004 78 291 6.0 12.0 0.00 0.00 0.00 21 1019.6
20260507211504 78 281 6.0 13.0 0.00 0.00 0.00 21 1019.6
20260507211005 78 289 5.0 10.0 0.00 0.00 0.00 24 1019.5
20260507210504 78 285 6.0 13.0 0.00 0.00 0.00 23 1019.6
20260507205505 78 285 7.0 12.0 0.00 0.00 0.00 22 1019.7
20260507205004 78 284 6.0 13.0 0.00 0.00 0.00 23 1019.7
20260507204505 78 272 6.0 13.0 0.00 0.00 0.00 22 1019.7
20260507204005 78 288 6.0 13.0 0.00 0.00 0.00 22 1019.7
20260507203504 78 275 6.0 10.0 0.00 0.00 0.00 22 1019.8
20260507203004 77 286 6.0 14.0 0.00 0.00 0.00 23 1019.8
20260507202505 77 284 6.0 13.0 0.00 0.00 0.00 24 1019.8
20260507202005 77 278 7.0 15.0 0.00 0.00 0.00 24 1019.8
20260507201005 77 266 6.0 17.0 0.00 0.00 0.00 24 1019.9
20260507200505 77 292 7.0 14.0 0.00 0.00 0.00 24 1019.9
20260507195504 77 278 6.0 14.0 0.00 0.00 0.00 26 1019.9
20260507195004 76 275 4.0 10.0 0.00 0.00 0.00 26 1019.9
20260507194504 76 275 6.0 12.0 0.00 0.00 0.00 28 1020.0
20260507194004 76 285 6.0 14.0 0.00 0.00 0.00 26 1020.1
20260507193504 76 294 6.0 9.0 0.00 0.00 0.00 24 1020.2
20260507192504 76 285 4.0 12.0 0.00 0.00 0.00 26 1020.3
20260507192005 76 288 3.0 9.0 0.00 0.00 0.00 26 1020.3
20260507191505 76 287 5.0 10.0 0.00 0.00 0.00 25 1020.3
20260507191005 76 270 4.0 8.0 0.00 0.00 0.00 27 1020.4
20260507190504 76 277 5.0 9.0 0.00 0.00 0.00 26 1020.5
20260507190006 76 269 6.0 13.0 0.00 0.00 0.00 28 1020.5
20260507185505 76 275 3.0 8.0 0.00 0.00 0.00 27 1020.5
20260507185004 76 263 4.0 13.0 0.00 0.00 0.00 28 1020.6
20260507184504 76 268 4.0 8.0 0.00 0.00 0.00 28 1020.8
20260507184005 75 260 3.0 9.0 0.00 0.00 0.00 29 1020.8
20260507183504 75 285 3.0 7.0 0.00 0.00 0.00 31 1020.8
20260507183004 74 264 2.0 9.0 0.00 0.00 0.00 29 1020.9
20260507182004 74 0 1.0 7.0 0.00 0.00 0.00 30 1020.9
20260507181504 74 195 1.0 6.0 0.00 0.00 0.00 30 1020.9
20260507181005 74 264 2.0 5.0 0.00 0.00 0.00 32 1020.9
20260507180505 73 294 3.0 8.0 0.00 0.00 0.00 30 1020.9
20260507180005 73 270 2.0 5.0 0.00 0.00 0.00 32 1020.9
20260507175505 72 312 0.0 3.0 0.00 0.00 0.00 30 1021.0
20260507175004 72 205 0.0 3.0 0.00 0.00 0.00 34 1020.9
20260507174506 72 265 0.0 3.0 0.00 0.00 0.00 34 1021.0
20260507174005 72 90 0.0 5.0 0.00 0.00 0.00 34 1021.0
20260507173504 71 172 3.0 6.0 0.00 0.00 0.00 34 1021.0
20260507173005 71 192 0.0 3.0 0.00 0.00 0.00 35 1021.0
20260507172504 71 199 1.0 5.0 0.00 0.00 0.00 35 1021.0
20260507172004 70 196 1.0 3.0 0.00 0.00 0.00 39 1021.0
20260507171505 69 155 0.0 7.0 0.00 0.00 0.00 37 1021.1
20260507171005 69 150 0.0 6.0 0.00 0.00 0.00 39 1021.1
20260507170504 69 138 0.0 0.0 0.00 0.00 0.00 38 1021.1
20260507170005 69 138 0.0 0.0 0.00 0.00 0.00 39 1021.2
20260507165005 68 138 0.0 1.0 0.00 0.00 0.00 41 1021.1
20260507164004 67 14 1.0 3.0 0.00 0.00 0.00 43 1021.2
20260507163505 67 326 1.0 3.0 0.00 0.00 0.00 45 1021.2
20260507162504 66 51 0.0 0.0 0.00 0.00 0.00 50 1021.2
20260507162004 65 51 0.0 0.0 0.00 0.00 0.00 49 1021.3
20260507160505 64 325 0.0 3.0 0.00 0.00 0.00 53 1021.5
20260507160005 63 33 1.0 3.0 0.00 0.00 0.00 53 1021.4
20260507155005 62 282 0.0 2.0 0.00 0.00 0.00 56 1021.4
20260507154505 62 299 1.0 3.0 0.00 0.00 0.00 55 1021.4
20260507154005 61 179 0.0 0.0 0.00 0.00 0.00 55 1021.5
20260507153505 61 324 0.0 2.0 0.00 0.00 0.00 57 1021.5
20260507153004 61 313 1.0 2.0 0.00 0.00 0.00 57 1021.4
20260507152504 60 343 0.0 0.0 0.00 0.00 0.00 58 1021.5
20260507151504 59 343 0.0 0.0 0.00 0.00 0.00 61 1021.4
20260507151004 59 343 0.0 0.0 0.00 0.00 0.00 64 1021.5
20260507150505 58 343 0.0 0.0 0.00 0.00 0.00 64 1021.5
20260507150005 57 343 0.0 0.0 0.00 0.00 0.00 63 1021.5
20260507145504 57 343 0.0 0.0 0.00 0.00 0.00 66 1021.5
20260507145005 56 343 0.0 0.0 0.00 0.00 0.00 68 1021.5
20260507143505 54 343 0.0 0.0 0.00 0.00 0.00 75 1021.5
20260507143004 53 343 0.0 0.0 0.00 0.00 0.00 75 1021.6
20260507142505 53 343 0.0 0.0 0.00 0.00 0.00 79 1021.5
20260507142004 52 343 0.0 0.0 0.00 0.00 0.00 83 1021.5
20260507141505 50 343 0.0 0.0 0.00 0.00 0.00 84 1021.4
20260507140005 48 343 0.0 0.0 0.00 0.00 0.00 86 1021.4
20260507135504 47 343 0.0 0.0 0.00 0.00 0.00 87 1021.4
20260507135004 47 343 0.0 0.0 0.00 0.00 0.00 88 1021.4
20260507134504 46 343 0.0 0.0 0.00 0.00 0.00 89 1021.2
20260507134005 46 343 0.0 0.0 0.00 0.00 0.00 89 1021.2
20260507133504 45 343 0.0 0.0 0.00 0.00 0.00 89 1021.2
20260507133004 45 343 0.0 0.0 0.00 0.00 0.00 89 1021.1
20260507132504 45 343 0.0 0.0 0.00 0.00 0.00 89 1021.2
20260507132004 45 343 0.0 0.0 0.00 0.00 0.00 89 1021.2
20260507131505 45 343 0.0 0.0 0.00 0.00 0.00 89 1021.2
20260507131004 45 343 0.0 0.0 0.00 0.00 0.00 89 1021.2
20260507130505 45 343 0.0 0.0 0.00 0.00 0.00 89 1021.2
20260507130004 44 343 0.0 0.0 0.00 0.00 0.00 88 1021.2
20260507125505 45 343 0.0 0.0 0.00 0.00 0.00 88 1021.2
20260507125004 44 343 0.0 0.0 0.00 0.00 0.00 88 1021.1
20260507124504 45 343 0.0 0.0 0.00 0.00 0.00 87 1021.1
20260507124004 45 343 0.0 0.0 0.00 0.00 0.00 87 1021.1
20260507123505 45 343 0.0 0.0 0.00 0.00 0.00 86 1021.0
20260507122505 45 343 0.0 0.0 0.00 0.00 0.00 86 1021.0
20260507122005 46 343 0.0 0.0 0.00 0.00 0.00 86 1021.1
20260507121505 45 343 0.0 0.0 0.00 0.00 0.00 86 1021.1
20260507121005 46 343 0.0 0.0 0.00 0.00 0.00 87 1021.0
20260507120005 45 343 0.0 0.0 0.00 0.00 0.00 87 1021.0
20260507115504 46 343 0.0 0.0 0.00 0.00 0.00 86 1021.1
20260507115005 46 343 0.0 0.0 0.00 0.00 0.00 86 1021.0
20260507114505 46 343 0.0 0.0 0.00 0.00 0.00 86 1021.0
20260507114004 46 343 0.0 0.0 0.00 0.00 0.00 85 1021.0
20260507113505 46 343 0.0 0.0 0.00 0.00 0.00 84 1021.1
20260507113005 47 343 0.0 0.0 0.00 0.00 0.00 83 1021.1
20260507112505 47 343 0.0 0.0 0.00 0.00 0.00 82 1021.1
20260507112004 48 343 0.0 0.0 0.00 0.00 0.00 81 1021.1
20260507111506 48 343 0.0 0.0 0.00 0.00 0.00 80 1021.1
20260507110504 48 343 0.0 0.0 0.00 0.00 0.00 79 1021.1
20260507110005 48 343 0.0 0.0 0.00 0.00 0.00 79 1021.1
20260507105504 48 343 0.0 0.0 0.00 0.00 0.00 80 1021.1
20260507105005 48 343 0.0 0.0 0.00 0.00 0.00 80 1021.1
20260507104504 48 343 0.0 0.0 0.00 0.00 0.00 81 1021.1
20260507104005 48 343 0.0 0.0 0.00 0.00 0.00 81 1021.1
20260507103505 48 343 0.0 0.0 0.00 0.00 0.00 81 1021.2
20260507103005 47 343 0.0 0.0 0.00 0.00 0.00 82 1021.1
20260507102006 47 343 0.0 0.0 0.00 0.00 0.00 82 1021.2
20260507101504 48 343 0.0 0.0 0.00 0.00 0.00 81 1021.2
20260507101004 48 343 0.0 0.0 0.00 0.00 0.00 81 1021.2
20260507100505 48 343 0.0 0.0 0.00 0.00 0.00 80 1021.2
20260507100005 48 343 0.0 0.0 0.00 0.00 0.00 80 1021.2
20260507095005 49 343 0.0 0.0 0.00 0.00 0.00 78 1021.2
20260507094504 48 343 0.0 0.0 0.00 0.00 0.00 79 1021.2